Location: Cussy
(47.0410°N, 4.6412°E)
Time: 15:37:57
(UTC+00:00)

FengYun 1-2 T - Pass Details

Date: 30 November 2020
Orbit: 847 x 880 km, 98.7° (Epoch: 28 January)

Event Time Altitude Azimuth Distance (km) Brightness Sun altitude
Rises 16:56:45 0° 153° (SSE) 3,424 7.3 -10.3°
Reaches altitude 10° 16:59:08 10° 150° (SSE) 2,486 6.6 -10.7°
Maximum altitude 17:04:34 63° 71° (ENE) 953 4.2 -11.6°
Drops below altitude 10° 17:10:00 10° 352° (N) 2,487 6.5 -12.5°
Sets 17:12:24 0° 349° (N) 3,424 7.3 -12.8°
